This demonstration page uses our WeatherBlox Daily Observations layout. Learn more.

Left ArrowRight Arrow

38.89511, -77.03637

Hourly Observations for January 24, 2022

Temp ( °F °C ) Dew Point ( °F °C ) Humidity (%) Winds ( mph kmh ) Pressure ( in mb ) Visibility ( mi km ) Precip ( " mm )
12:52 am 00:52 Cloudy 34 1.1 23 -5 64 64 Calm 29.83 1010 10 16 0.00 0.00
1:52 am 01:52 Cloudy 38 3.3 22 -5.6 52 52 WNW 7 11 29.83 1010 10 16 0.00 0.00
2:52 am 02:52 Cloudy 37 2.8 23 -5 57 57 W 6 9 29.85 1011 10 16 0.00 0.00
3:05 am 03:05 Cloudy with Light Snow 37 2.8 24 -4.4 59 59 WNW 5 7 29.86 1011 10 16 0.00 0.00
3:52 am 03:52 Cloudy with Light Snow 36 2.2 24 -4.4 62 62 NW 8 13 29.87 1011 9 14 0.00 0.00
4:25 am 04:25 Cloudy 37 2.8 24 -4.4 59 59 NW 12 19 29.88 1012 9 14 0.00 0.00
4:48 am 04:48 Cloudy with Light Snow 36 2 23 -5 60 60 NNW 13 20 29.88 1012 10 16 0.00 0.00
4:52 am 04:52 Cloudy with Light Snow 36 2.2 24 -4.4 62 62 NNW 14 22 29.88 1012 10 16 0.00 0.00
5:03 am 05:03 Mostly Cloudy 35 1.7 23 -5 61 61 NNW 10 17 29.89 1012 9 14 0.00 0.00
5:52 am 05:52 Mostly Cloudy 34 1.1 22 -5.6 61 61 NNW 10 17 29.91 1013 10 16 0.00 0.00
6:52 am 06:52 Mostly Clear 31 -0.6 19 -7.2 61 61 NNW 7 11 29.93 1014 10 16 0.00 0.00
7:52 am 07:52 Mostly Sunny 31 -0.6 18 -7.8 59 59 N 8 13 29.95 1014 10 16 0.00 0.00
8:52 am 08:52 Mostly Sunny 35 1.7 18 -7.8 50 50 N 8 13 29.96 1014 10 16 0.00 0.00
9:52 am 09:52 Partly Cloudy 37 2.8 17 -8.3 44 44 NE 6 9 29.96 1014 10 16 0.00 0.00
10:52 am 10:52 Partly Cloudy 37 2.8 17 -8.3 44 44 Calm 29.95 1014 10 16 0.00 0.00
11:52 am 11:52 Mostly Sunny 38 3.3 18 -7.8 44 44 SE 5 7 29.92 1013 10 16 0.00 0.00
12:52 pm 12:52 Mostly Cloudy 39 3.9 20 -6.7 46 46 S 10 17 29.89 1012 10 16 0.00 0.00
1:52 pm 13:52 Cloudy 41 5 20 -6.7 43 43 S 8 13 29.87 1012 10 16 0.00 0.00
2:52 pm 14:52 Cloudy 39 3.9 23 -5 53 53 S 13 20 29.85 1011 10 16 0.00 0.00
3:52 pm 15:52 Mostly Cloudy 41 5 23 -5 49 49 S 8 13 29.85 1011 10 16 0.00 0.00
4:52 pm 16:52 Cloudy 40 4.4 24 -4.4 53 53 SSE 9 15 29.84 1011 10 16 0.00 0.00
5:52 pm 17:52 Mostly Cloudy 38 3.3 26 -3.3 62 62 S 8 13 29.84 1011 10 16 0.00 0.00
6:52 pm 18:52 Partly Cloudy 37 2.8 25 -3.9 62 62 SSE 8 13 29.84 1011 10 16 0.00 0.00
7:52 pm 19:52 Mostly Clear 36 2.2 26 -3.3 67 67 S 12 19 29.83 1010 10 16 0.00 0.00
8:52 pm 20:52 Mostly Clear 35 1.7 26 -3.3 70 70 S 7 11 29.83 1010 10 16 0.00 0.00
9:52 pm 21:52 Cloudy 37 2.8 28 -2.2 70 70 S 10 17 29.84 1010 10 16 0.00 0.00
10:52 pm 22:52 Cloudy 38 3.3 28 -2.2 68 68 S 10 17 29.83 1010 10 16 0.00 0.00
11:52 pm 23:52 Cloudy 39 3.9 25 -3.9 57 57 SSW 8 13 29.82 1010 10 16 0.00 0.00

Powered by AerisWeather